Flag for Switzerland Weather past 2 weeks in Sarnen, Obwalden, Switzerland

Now
53 °F

Cool.


Feels Like: 53 °F
Forecast: 54 / 77 °F
Wind: 1 mph from West

Location: Giswil

Current Time: Jul 25, 2014 at 5:46:39 AM

Latest Report: Jul 25, 2014 at 4:00 AM


Visibility: N/A

Pressure: 29.98 "Hg

Humidity: 98%

Dew point: 52 °F

Location of SarnenLocation

Historic Weather in Sarnen — Graph

°F

Sarnen temperature yesterday

Maximum temperature yesterday: 74 °F (at 4:00 PM)
Minimum temperature yesterday: 59 °F (at 11:00 PM)
Average temperature yesterday: 65 °F

Past Weeks' High & Low Weather Summary

 TemperatureHumidityPressure
High87 °F (Jul 18, 4:00 PM)100% (Jul 12, 12:00 AM)30.24 "Hg (Jul 12, 12:00 AM)
Low51 °F (Jul 16, 6:00 AM)31% (Jul 18, 4:00 PM)29.80 "Hg (Jul 20, 7:00 PM)
Average64 °F82%30.00 "Hg
* Reported Jul 10 4:00 AM — Jul 25 4:00 AM, Sarnen, Weather by CustomWeather, © 2014

Note: Actual official high and low records may vary slightly from our data, if they occured in-between our weather recording intervals... More about our weather records

Advertising

Sarnen weather history for previous 24 hours

 ConditionsComfort  
Time TempWeatherWind HumidityBarometerVisibility
4:00 AM
Jul 25
53 °FCool.1 mph98%29.98 "HgN/A
3:00 AM54 °FCool.2 mph97%29.98 "HgN/A
2:00 AM55 °FCool.2 mph97%29.98 "HgN/A
1:00 AM57 °FCool.2 mph94%29.98 "HgN/A
12:00 AM60 °FCool.1 mph90%29.97 "HgN/A
11:00 PM
Jul 24
59 °FCool.2 mph91%29.97 "HgN/A
10:00 PM60 °FCool.5 mph92%29.96 "HgN/A
9:00 PM67 °FMild.6 mph70%29.90 "HgN/A
8:00 PM69 °FMild.7 mph65%29.88 "HgN/A
7:00 PM70 °FMild.7 mph70%29.87 "HgN/A
6:00 PM70 °FMild.3 mph71%29.88 "HgN/A
5:00 PM72 °FMild.1 mph64%29.87 "HgN/A
4:00 PM74 °FMild.2 mph57%29.86 "HgN/A
3:00 PM73 °FMild.1 mph59%29.87 "HgN/A
2:00 PM71 °FMild.1 mph64%29.89 "HgN/A
1:00 PM68 °FMild.2 mph77%29.91 "HgN/A
12:00 PM65 °FMild.2 mph90%29.93 "HgN/A
11:00 AM63 °FMild.2 mph95%29.93 "HgN/A
10:00 AM63 °FMild.3 mph95%29.92 "HgN/A
9:00 AM62 °FCool.2 mph98%29.90 "HgN/A
8:00 AM62 °FMild.1 mph98%29.89 "HgN/A
7:00 AM62 °FCool.2 mph99%29.88 "HgN/A
6:00 AM59 °FCool.2 mph99%29.88 "HgN/A
5:00 AM60 °FCool.No wind99%29.87 "HgN/A
Weather by CustomWeather, © 2014

See weather overviewHow to use our weather pages